ZHONGXING-6C (44067 NORAD) Tracking and Keplerian Element Data

This shows tracking and keplerian element data for the satellite.

Feedback or suggestion? Click here.




ElementValue
Catalog44067
NameZHONGXING-6C
Epoch Orbit2174
Epoch Day34.76502941
Epoch Year2025
RAAN82.8619
Inclination0.0651
Eccentricity0.0003812
Argument of Perigee237.2202
Mean Anonmoly219.9004
Mean Motion1.00270898
Decay Rate-3.31E-06
L11 44067U 19012A 25034.76502941 -.00000331 00000+0 00000+0 0 9998
L22 44067 0.0651 82.8619 0003812 237.2202 219.9004 1.00270898 21745



Live tracking and technical data element details for ZHONGXING-6C (NORAD 44067). ZHONGXING-6C can be tracked NOW for your location showing map with azimuth and elevation plus other details from your city location.







IsCatalogInMostPopularTable: catalog: 44067, numindb: 339
Update: records affected: 1



GetName: 44067 ZHONGXING-6C

Hit Count: updated at: Sat, 17 May 2025 10:11:11 GMT